| time (UTC) | temp F | wind direction | speed MPH | gust MPH | rain 1hr in | rain 24hr in | rain mn in | humidity % | barometer mb |
| 20260507040006 | 57 | 0.0 | 0.0 | 0.00 | 0.16 | 0.00 | 94 | 1004.9 | |
| 20260507034500 | 57 | 0.0 | 0.0 | 0.00 | 0.16 | 0.16 | 94 | 1004.7 | |
| 20260507033056 | 58 | 0.0 | 0.0 | 0.00 | 0.16 | 0.16 | 94 | 1004.4 | |
| 20260507031550 | 58 | 0.0 | 0.0 | 0.00 | 0.16 | 0.16 | 94 | 1004.3 | |
| 20260507030044 | 58 | 0.0 | 0.0 | 0.00 | 0.16 | 0.16 | 95 | 1004.2 | |
| 20260507024538 | 58 | 0.0 | 0.0 | 0.00 | 0.16 | 0.16 | 94 | 1003.9 | |
| 20260507023032 | 58 | 0.0 | 0.0 | 0.00 | 0.16 | 0.16 | 94 | 1004.0 | |
| 20260507021527 | 58 | 0.0 | 0.0 | 0.00 | 0.16 | 0.16 | 94 | 1003.9 | |
| 20260507020020 | 58 | 0.0 | 0.0 | 0.00 | 0.16 | 0.16 | 94 | 1003.7 | |
| 20260507014511 | 58 | 0.0 | 0.0 | 0.01 | 0.16 | 0.16 | 94 | 1003.9 | |
| 20260507013006 | 58 | 0.0 | 0.0 | 0.01 | 0.16 | 0.16 | 94 | 1003.9 | |
| 20260507011556 | 58 | 0.0 | 0.0 | 0.01 | 0.16 | 0.16 | 94 | 1004.1 | |
| 20260507010100 | 58 | 0.0 | 0.0 | 0.01 | 0.16 | 0.16 | 94 | 1004.1 | |
| 20260507004544 | 58 | 0.0 | 0.0 | 0.00 | 0.15 | 0.15 | 94 | 1004.0 | |
| 20260507003039 | 58 | 0.0 | 0.0 | 0.00 | 0.15 | 0.15 | 94 | 1004.0 | |
| 20260507001533 | 58 | 0.0 | 0.0 | 0.00 | 0.15 | 0.15 | 94 | 1003.8 | |
| 20260507000027 | 58 | 0.0 | 0.0 | 0.03 | 0.15 | 0.15 | 95 | 1003.8 | |
| 20260506234522 | 58 | 0.0 | 0.0 | 0.04 | 0.15 | 0.15 | 94 | 1003.6 | |
| 20260506233016 | 58 | 0.0 | 0.0 | 0.04 | 0.15 | 0.15 | 94 | 1003.5 | |
| 20260506231509 | 59 | 0.0 | 0.0 | 0.05 | 0.15 | 0.15 | 94 | 1003.4 | |
| 20260506230010 | 59 | 0.0 | 0.0 | 0.02 | 0.11 | 0.11 | 94 | 1003.7 | |
| 20260506224559 | 59 | 0.0 | 0.0 | 0.02 | 0.11 | 0.11 | 94 | 1003.9 | |
| 20260506223054 | 59 | 0.0 | 0.0 | 0.02 | 0.11 | 0.11 | 94 | 1003.9 | |
| 20260506221607 | 59 | 0.0 | 0.0 | 0.01 | 0.10 | 0.10 | 93 | 1003.9 | |
| 20260506220052 | 59 | 0.0 | 0.0 | 0.01 | 0.09 | 0.09 | 93 | 1004.0 | |
| 20260506214539 | 59 | 0.0 | 0.0 | 0.01 | 0.09 | 0.09 | 93 | 1004.1 | |
| 20260506213030 | 59 | 0.0 | 0.0 | 0.01 | 0.09 | 0.09 | 92 | 1004.3 | |
| 20260506211530 | 59 | 116 | 3.0 | 10.0 | 0.02 | 0.09 | 0.09 | 92 | 1004.6 |
| 20260506210026 | 59 | 144 | 4.0 | 15.0 | 0.02 | 0.08 | 0.08 | 92 | 1004.5 |
| 20260506204520 | 60 | 128 | 4.0 | 13.0 | 0.03 | 0.08 | 0.08 | 92 | 1004.7 |
| 20260506203017 | 60 | 148 | 6.0 | 17.0 | 0.03 | 0.07 | 0.07 | 91 | 1004.9 |
| 20260506201526 | 60 | 167 | 3.0 | 11.0 | 0.03 | 0.06 | 0.06 | 91 | 1004.8 |
| 20260506200011 | 61 | 163 | 1.0 | 13.0 | 0.04 | 0.06 | 0.06 | 91 | 1004.8 |
| 20260506194510 | 61 | 144 | 2.0 | 10.0 | 0.05 | 0.05 | 0.05 | 90 | 1004.8 |
| 20260506193007 | 62 | 161 | 3.0 | 13.0 | 0.04 | 0.04 | 0.04 | 88 | 1004.7 |
| 20260506191502 | 63 | 150 | 2.0 | 10.0 | 0.03 | 0.03 | 0.03 | 87 | 1004.7 |
| 20260506190058 | 64 | 168 | 3.0 | 13.0 | 0.02 | 0.02 | 0.02 | 81 | 1004.8 |
| 20260506184627 | 66 | 129 | 3.0 | 13.0 | 0.00 | 0.00 | 0.00 | 74 | 1004.9 |
| 20260506183055 | 68 | 166 | 6.0 | 18.0 | 0.00 | 0.00 | 0.00 | 68 | 1005.0 |
| 20260506181553 | 70 | 179 | 7.0 | 16.0 | 0.00 | 0.00 | 0.00 | 61 | 1005.0 |
| 20260506180048 | 71 | 209 | 6.0 | 19.0 | 0.00 | 0.00 | 0.00 | 56 | 1004.9 |
| 20260506174540 | 72 | 163 | 8.0 | 28.0 | 0.00 | 0.00 | 0.00 | 54 | 1005.1 |
| 20260506173044 | 73 | 186 | 8.0 | 21.0 | 0.00 | 0.00 | 0.00 | 54 | 1005.2 |
| 20260506171548 | 73 | 169 | 9.0 | 24.0 | 0.00 | 0.00 | 0.00 | 53 | 1005.2 |
| 20260506170035 | 74 | 148 | 3.0 | 14.0 | 0.00 | 0.00 | 0.00 | 55 | 1005.2 |
| 20260506164526 | 72 | 151 | 6.0 | 16.0 | 0.00 | 0.00 | 0.00 | 57 | 1005.2 |
| 20260506163027 | 71 | 107 | 4.0 | 16.0 | 0.00 | 0.00 | 0.00 | 58 | 1005.9 |
| 20260506161521 | 71 | 188 | 5.0 | 15.0 | 0.00 | 0.00 | 0.00 | 59 | 1006.0 |
| 20260506160021 | 71 | 155 | 4.0 | 17.0 | 0.00 | 0.00 | 0.00 | 60 | 1006.2 |
| 20260506154519 | 71 | 142 | 5.0 | 15.0 | 0.00 | 0.00 | 0.00 | 58 | 1006.5 |
| 20260506153014 | 71 | 154 | 3.0 | 15.0 | 0.00 | 0.00 | 0.00 | 59 | 1006.7 |
| 20260506151511 | 71 | 157 | 3.0 | 13.0 | 0.00 | 0.00 | 0.00 | 59 | 1006.9 |
| 20260506150007 | 71 | 188 | 7.0 | 16.0 | 0.00 | 0.00 | 0.00 | 60 | 1006.9 |
| 20260506144604 | 70 | 209 | 2.0 | 11.0 | 0.00 | 0.00 | 0.00 | 63 | 1007.1 |
| 20260506143056 | 70 | 144 | 2.0 | 19.0 | 0.00 | 0.00 | 0.00 | 64 | 1007.1 |
| 20260506141554 | 69 | 161 | 5.0 | 24.0 | 0.00 | 0.00 | 0.00 | 64 | 1006.9 |
| 20260506140053 | 69 | 206 | 4.0 | 16.0 | 0.00 | 0.00 | 0.00 | 66 | 1006.9 |
| 20260506134547 | 68 | 156 | 9.0 | 25.0 | 0.00 | 0.00 | 0.00 | 67 | 1007.0 |
| 20260506133044 | 67 | 135 | 2.0 | 13.0 | 0.00 | 0.00 | 0.00 | 70 | 1007.3 |
| 20260506131548 | 66 | 166 | 4.0 | 13.0 | 0.00 | 0.00 | 0.00 | 71 | 1007.6 |
| 20260506130038 | 66 | 185 | 3.0 | 14.0 | 0.00 | 0.00 | 0.00 | 71 | 1007.6 |
| 20260506124535 | 66 | 182 | 1.0 | 10.0 | 0.00 | 0.00 | 0.00 | 72 | 1007.6 |
| 20260506123030 | 65 | 183 | 4.0 | 11.0 | 0.00 | 0.00 | 0.00 | 75 | 1007.6 |
| 20260506121525 | 63 | 120 | 2.0 | 9.0 | 0.00 | 0.00 | 0.00 | 76 | 1007.8 |
| 20260506120024 | 63 | 141 | 5.0 | 11.0 | 0.00 | 0.00 | 0.00 | 78 | 1007.6 |
| 20260506114533 | 61 | 119 | 1.0 | 9.0 | 0.00 | 0.00 | 0.00 | 79 | 1007.9 |
| 20260506113020 | 61 | 155 | 2.0 | 13.0 | 0.00 | 0.00 | 0.00 | 79 | 1008.0 |
| 20260506111516 | 61 | 144 | 2.0 | 12.0 | 0.00 | 0.00 | 0.00 | 80 | 1008.1 |
| 20260506110015 | 60 | 119 | 2.0 | 10.0 | 0.00 | 0.00 | 0.00 | 81 | 1007.9 |
| 20260506104508 | 0 | 0.0 | 0.0 | 0.00 | 0.00 | 0.00 | 1008.0 | ||
| 20260506103100 | 0 | 0.0 | 0.0 | 0.00 | 0.00 | 0.00 | 1007.9 | ||
| 20260506101555 | 0 | 0.0 | 0.0 | 0.00 | 0.00 | 0.00 | 1008.0 | ||
| 20260506100104 | 0 | 0.0 | 0.0 | 0.00 | 0.00 | 0.00 | 1007.8 | ||
| 20260506094543 | 0 | 0.0 | 0.0 | 0.00 | 0.00 | 0.00 | 1007.9 | ||
| 20260506093037 | 0 | 0.0 | 0.0 | 0.00 | 0.00 | 0.00 | 1007.8 | ||
| 20260506091532 | 0 | 0.0 | 0.0 | 0.00 | 0.00 | 0.00 | 1007.9 | ||
| 20260506090025 | 0 | 0.0 | 0.0 | 0.00 | 0.00 | 0.00 | 1007.8 | ||
| 20260506084518 | 0 | 0.0 | 0.0 | 0.00 | 0.00 | 0.00 | 1008.1 | ||
| 20260506083012 | 0 | 0.0 | 0.0 | 0.00 | 0.00 | 0.00 | 1008.0 | ||
| 20260506081507 | 0 | 0.0 | 0.0 | 0.00 | 0.00 | 0.00 | 1008.1 | ||
| 20260506073049 | 61 | 0.0 | 0.0 | 0.00 | 0.00 | 0.00 | 74 | 1007.7 | |
| 20260506071544 | 62 | 0.0 | 0.0 | 0.00 | 0.00 | 0.00 | 73 | 1007.7 | |
| 20260506061520 | 63 | 0.0 | 0.0 | 0.00 | 0.00 | 0.00 | 69 | 1007.4 | |
| 20260506044544 | 63 | 0.0 | 0.0 | 0.00 | 0.00 | 0.00 | 67 | 1007.8 | |
| 20260506043031 | 62 | 0.0 | 0.0 | 0.00 | 0.00 | 0.00 | 66 | 1007.9 | |
| 20260506041525 | 63 | 0.0 | 0.0 | 0.00 | 0.00 | 0.00 | 66 | 1007.7 |